Weather History for Burns, OR

Change the Weather History Date:

Friday, September 6, 2013

  Actual Average Record
Temperature  
Mean Temperature 54 °F 59 °F  
Max Temperature 72 °F 79 °F 96 °F (1955)
Min Temperature 36 °F 40 °F 25 °F (2010)
Degree Days  
Heating Degree Days 11 6  
Month to date heating degree days 16 34  
Since 1 July heating degree days 52 171  
Cooling Degree Days 0 1  
Month to date cooling degree days 11 6  
Year to date cooling degree days 362 212  
Growing Degree Days 4 (Base 50)    
Moisture  
Dew Point 43 °F    
Average Humidity 68    
Maximum Humidity 100    
Minimum Humidity 35    
Precipitation  
Precipitation 0.00 in 0.01 in 0.04 in (1991)
Month to date precipitation 0.57 0.08  
Year to date precipitation 4.49 7.06  
Sea Level Pressure  
Sea Level Pressure 30.12 in    
Wind  
Wind Speed 6 mph (SW)    
Max Wind Speed 14 mph    
Max Gust Speed 21 mph    
Visibility 10 miles    
Events      
T = Trace of Precipitation, MM = Missing Value Source: NWS Daily Summary

Daily Weather History Graph

Daily Weather History Graph

Search for Another Location

Airport:

Trip Planner

Search our weather history database for the weather conditions in past years. The results will help you decide how hot, cold, wet, or windy it might be!

Date:

Astronomy

Sep. 06, 2013 Rise Set
Actual Time 6:25 AM PDT 7:21 PM PDT
Civil Twilight 5:56 AM PDT 7:50 PM PDT
Nautical Twilight 5:21 AM PDT 8:25 PM PDT
Astronomical Twilight 4:45 AM PDT 9:01 PM PDT
Moon 7:47 AM PDT (9/6) 7:43 PM PDT (9/6)
Length of Visible Light 13h 54m
Length of Day
12h 56m
New Moon, 2% of the Moon is Illuminated
Sep 6
New Moon
Sep 12
First Quarter
Sep 19
Full
Sep 26
Last Quarter
Oct 4
New

Hourly Weather History & Observations

Time (PDT) Temp. Windchill Dew Point Humidity Pressure Visibility Wind Dir Wind Speed Gust Speed Precip Events Conditions
12:53 AM 43.0 °F - 41.0 °F 93% 30.05 in 10.0 mi Calm Calm - N/A   Clear
1:53 AM 45.0 °F 41.8 °F 42.1 °F 90% 30.09 in 10.0 mi WSW 5.8 mph - N/A   Clear
2:53 AM 43.0 °F 37.7 °F 41.0 °F 93% 30.11 in 10.0 mi SW 9.2 mph - N/A   Clear
3:53 AM 43.0 °F 40.3 °F 39.9 °F 89% 30.11 in 10.0 mi WSW 4.6 mph - N/A   Clear
4:53 AM 43.0 °F 38.2 °F 39.9 °F 89% 30.14 in 10.0 mi WSW 8.1 mph - N/A   Clear
5:53 AM 37.9 °F 33.5 °F 37.0 °F 97% 30.15 in 10.0 mi South 5.8 mph - N/A   Clear
6:53 AM 37.9 °F - 37.0 °F 97% 30.18 in 10.0 mi Calm Calm - N/A   Clear
7:53 AM 46.9 °F - 43.0 °F 86% 30.18 in 10.0 mi Calm Calm - N/A   Clear
8:53 AM 51.1 °F - 43.0 °F 74% 30.19 in 10.0 mi Variable 3.5 mph - N/A   Clear
9:53 AM 54.0 °F - 44.1 °F 69% 30.20 in 10.0 mi Calm Calm - N/A   Clear
10:53 AM 59.0 °F - 44.1 °F 58% 30.17 in 10.0 mi Calm Calm - N/A   Partly Cloudy
11:53 AM 63.0 °F - 44.1 °F 50% 30.15 in 10.0 mi SSE 8.1 mph - N/A   Mostly Cloudy
12:53 PM 64.9 °F - 44.1 °F 47% 30.15 in 10.0 mi WSW 9.2 mph - N/A   Partly Cloudy
1:53 PM 66.9 °F - 43.0 °F 42% 30.13 in 10.0 mi South 8.1 mph - N/A   Clear
2:53 PM 69.1 °F - 43.0 °F 39% 30.11 in 10.0 mi SSE 10.4 mph - N/A   Clear
3:53 PM 71.1 °F - 42.1 °F 35% 30.08 in 10.0 mi SSE 5.8 mph - N/A   Clear
4:53 PM 70.0 °F - 42.1 °F 36% 30.07 in 10.0 mi SSW 11.5 mph - N/A   Partly Cloudy
5:53 PM 71.1 °F - 42.1 °F 35% 30.08 in 10.0 mi South 6.9 mph - N/A   Clear
6:53 PM 66.9 °F - 45.0 °F 45% 30.08 in 10.0 mi WSW 5.8 mph - N/A   Clear
7:53 PM 60.1 °F - 48.0 °F 64% 30.07 in 10.0 mi Calm Calm - N/A   Clear
8:53 PM 57.9 °F - 46.0 °F 65% 30.09 in 10.0 mi WNW 10.4 mph - N/A   Clear
9:53 PM 55.0 °F - 46.0 °F 72% 30.12 in 10.0 mi West 6.9 mph - N/A   Clear
10:53 PM 51.1 °F - 45.0 °F 80% 30.12 in 10.0 mi WNW 6.9 mph - N/A   Clear
11:53 PM 50.0 °F - 45.0 °F 83% 30.12 in 10.0 mi West 8.1 mph - N/A   Clear